Location: Flensburg
(54.6357°N, 9.5142°E)
Time: 08:09:13
(UTC+02:00)

ISS - Pass Details

Date: 05 January 2018
Orbit: 402 x 408 km, 51.6° (Epoch: 19 July)

Event Time Altitude Azimuth Distance (km) Brightness Sun altitude
Exits shadow 06:18:09 47° 201° (SSW) 567 -3.3 -19.6°
Maximum altitude 06:18:31 50° 175° (S) 544 -3.2 -19.5°
Drops below altitude 10° 06:21:48 10° 100° (E) 1,504 0.3 -19.0°
Enters shadow 07:15:23 -73° 283° (WNW) 12,637 3.7 -11.7°
